This is the latest recevied weather packets stored in our database for station/object KF7OVD-WX. If no packets are shown the sender has not sent any weather packets the latest 10 day(s).
| Time | Temp. | Humidity | Pressure | Rain* | Wind** | Luminosity | Snow |
|---|---|---|---|---|---|---|---|
| 1777617322 | 3.33° C | 63% | 1021.3 hPa | 0 mm | - | - | - |
| 1777616717 | 3.33° C | 62% | 1021.3 hPa | 0 mm | - | - | - |
| 1777615830 | 3.89° C | 59% | 1021 hPa | 0 mm | - | - | - |
| 1777614340 | 5° C | 56% | 1021 hPa | 0 mm | - | - | - |
| 1777614018 | 5° C | 55% | 1021 hPa | 0 mm | - | - | - |
| 1777613418 | 5.56° C | 55% | 1021 hPa | 0 mm | - | - | - |
| 1777611622 | 6.11° C | 53% | 1020.7 hPa | 0 mm | - | - | - |
| 1777610130 | 6.67° C | 51% | 1020.6 hPa | 0 mm | - | - | - |
| 1777609221 | 6.67° C | 51% | 1020.4 hPa | 0 mm | - | - | - |
| 1777608028 | 6.67° C | 50% | 1020.1 hPa | 0 mm | - | - | - |
| 1777606517 | 8.33° C | 48% | 1019.6 hPa | 0 mm | - | - | - |
| 1777605918 | 8.33° C | 47% | 1019.5 hPa | 0 mm | - | - | - |
| 1777605633 | 8.89° C | 47% | 1019.4 hPa | 0 mm | - | - | - |
| 1777604744 | 9.44° C | 46% | 1019.2 hPa | 0 mm | - | - | - |
| 1777603231 | 11.67° C | 44% | 1019 hPa | 0 mm | - | - | - |
| 1777602019 | 13.89° C | 38% | 1018.7 hPa | 0 mm | - | - | - |
| 1777601430 | 15.56° C | 36% | 1018.5 hPa | 0 mm | - | - | - |
| 1777599616 | 16.67° C | 35% | 1018.3 hPa | 0 mm | - | - | - |
| 1777599319 | 17.78° C | 33% | 1018.1 hPa | 0 mm | - | - | - |
| 1777598428 | 18.33° C | 31% | 1018.1 hPa | 0 mm | - | - | - |
| 1777597218 | 19.44° C | 29% | 1018.1 hPa | 0 mm | - | - | - |
| 1777595723 | 20° C | 26% | 1018.1 hPa | 0 mm | - | - | - |
| 1777594530 | 20.56° C | 24% | 1018.1 hPa | 0 mm | - | - | - |
| 1777591226 | 22.22° C | 24% | 1018.1 hPa | 0 mm | - | - | - |
| 1777590924 | 22.22° C | 24% | 1018.1 hPa | 0 mm | - | - | - |
* Rain latest hour (hover to see other rain measurements)
** Current wind speed in m/s (hover to see current wind gust speed)